Eureka, NV

3:32 PM PST on February 05, 2016 (GMT -0800)
Eureka

Weather History for KP68 - June, 2013

Change the Weather History Date:

Thursday, June 13, 2013

  Actual Average Record
Temperature  
Mean Temperature 61 °F 60 °F  
Max Temperature 78 °F 79 °F 91 °F (1985)
Min Temperature 44 °F 41 °F 26 °F (1992)
Degree Days  
Heating Degree Days 4 6  
Month to date heating degree days 20 101  
Since 1 June heating degree days 20 101  
Since 1 July heating degree days 6819 7317  
Cooling Degree Days 0 1  
Month to date cooling degree days 32 6  
Year to date cooling degree days 33 9  
Since 1 June cooling degree days 32 6  
Growing Degree Days 12 (Base 50)    
Moisture  
Dew Point 16 °F    
Average Humidity 27    
Maximum Humidity 50    
Minimum Humidity 4    
Precipitation  
Precipitation 0.00 in 0.03 in 0.69 in (1997)
Month to date precipitation 0.03 0.48  
Year to date precipitation 3.13 4.71  
Sea Level Pressure  
Sea Level Pressure 29.84 in    
Wind  
Wind Speed 10 mph (NW)    
Max Wind Speed 29 mph    
Max Gust Speed 37 mph    
T = Trace of Precipitation, MM = Missing Value Source: NWS Daily Summary

Daily Weather History Graph

Daily Weather History Graph

Search for Another Location

Airport or City:

Trip Planner

Search our weather history database for the weather conditions in past years. The results will help you decide how hot, cold, wet, or windy it might be!

Date:

Astronomy

Jun. 13, 2013 Rise Set
Actual Time 5:15 AM PDT 8:12 PM PDT
Civil Twilight 4:43 AM PDT 8:44 PM PDT
Nautical Twilight 4:02 AM PDT 9:25 PM PDT
Astronomical Twilight 3:15 AM PDT 10:13 PM PDT
Moon 9:55 AM PDT (6/13) 11:22 PM PDT (6/13)
Length of Visible Light 16h 01m
Length of Day
14h 56m
Waxing Crescent, 22% of the Moon is Illuminated
Jun 13
Waxing Crescent
Jun 16
First Quarter
Jun 23
Full
Jun 29
Last Quarter
Jul 8
New

Hourly Weather History & Observations

Time (PDT) Temp. Dew Point Humidity Pressure Visibility Wind Dir Wind Speed Gust Speed Precip Events Conditions
12:53 AM 61.0 °F 33.1 °F 35% 29.74 in - ESE 6.9 mph - N/A   Unknown
1:53 AM 62.1 °F 28.0 °F 28% 29.75 in - WNW 6.9 mph - N/A   Unknown
2:53 AM 51.1 °F 34.0 °F 52% 29.77 in - SSE 3.5 mph - N/A   Unknown
3:53 AM 50.0 °F 26.1 °F 39% 29.78 in - Calm Calm - N/A   Unknown
4:53 AM 46.9 °F 21.9 °F 37% 29.81 in - South 5.8 mph - N/A   Unknown
5:53 AM 46.9 °F 23.0 °F 39% 29.82 in - SSE 6.9 mph - N/A   Unknown
6:53 AM 55.0 °F 27.0 °F 34% 29.79 in - South 3.5 mph - N/A   Unknown
7:53 AM 64.9 °F 24.1 °F 21% 29.78 in - NNE 5.8 mph - N/A   Unknown
8:53 AM 66.9 °F 21.0 °F 17% 29.80 in - NNE 9.2 mph - N/A   Unknown
9:53 AM 69.1 °F 21.0 °F 16% 29.79 in - Variable 6.9 mph - N/A   Unknown
10:53 AM 72.0 °F 21.9 °F 15% 29.79 in - North 9.2 mph - N/A   Unknown
11:53 AM 73.9 °F 21.9 °F 14% 29.80 in - NNE 12.7 mph 17.3 mph N/A   Unknown
12:28 PM 75.0 °F 19.0 °F 12% 30.05 in - West 15.0 mph - N/A   Unknown
12:53 PM 73.9 °F 18.0 °F 12% 29.81 in - NW 13.8 mph 24.2 mph N/A   Unknown
1:53 PM 77.0 °F 15.1 °F 10% 29.80 in - West 13.8 mph 28.8 mph N/A   Unknown
2:53 PM 77.0 °F 12.0 °F 8% 29.86 in - NW 19.6 mph 38.0 mph N/A   Unknown
3:00 PM - - N/A% - - North - - N/A   Unknown
3:53 PM 75.9 °F 3.9 °F 6% 29.85 in - NW 20.7 mph 35.7 mph N/A   Unknown
4:53 PM 75.9 °F -6.0 °F 4% 29.86 in - West 24.2 mph 34.5 mph N/A   Unknown
5:53 PM 73.9 °F -9.9 °F 4% 29.87 in - NW 19.6 mph 27.6 mph N/A   Unknown
6:53 PM 71.1 °F -4.0 °F 5% 29.87 in - NW 13.8 mph 21.9 mph N/A   Unknown
7:53 PM 64.9 °F -4.0 °F 6% 29.88 in - NW 9.2 mph - N/A   Unknown
8:53 PM 55.9 °F 8.1 °F 15% 29.92 in - NNE 4.6 mph - N/A   Unknown
9:53 PM 50.0 °F 10.9 °F 21% 29.95 in - SSE 5.8 mph - N/A   Unknown
10:53 PM 51.1 °F 7.0 °F 17% 29.96 in - SSE 3.5 mph - N/A   Unknown
11:53 PM 53.1 °F 19.9 °F 27% 29.96 in - North 11.5 mph - N/A   Unknown